ONEWEB-0061, 45428

Orbit data source: Space-Track

ONEWEB-0061, 45428 is a payload satellite owned by One Web (UK) in LEO that was launched on Sat, 21 Mar 2020 UTC via a SOYUZ-2-1B launch vehicle from the Tyuratam Missile And Space Complex (TTMTR). Payloads include a variety of satellites, spacecraft, and rockets equipped with specific instruments for various scientific and technological missions. These include communications satellites like Starlink; space stations such as the ISS; scientific satellites like the Hubble; Earth observation satellites from companies like Planet Labs, Umbra, and HawkEye 360; GPS; miniature CubeSats for education and research; and military/defense satellites.

Loading next visibility...
ONEWEB-0061 details
Identifier
45428, 2020-020E
Orbit
LEO
Last TLE update14 hours ago
Origin
Flag of UKOne Web (UK)
ManufacturerOne Web
MissionOperational Commercial Communications
Bus & MotorARROW, Unknown motor
Mass148 kg wet, ~140 kg dry
Launch date (UTC)
2020-03-21 (5 years ago)
Launch vehicle
SOYUZ-2-1B
Launch site
Tyuratam Missile And Space Complex (TTMTR)
Object type
Payload
Rocket body
Debris
Shape & HBRTrap Box + 2 Pan, 5 m
Radar Cross Section2.957 m², Large (>1 m²)

Expand to show TLE details & history

TLE from 14 hours ago
0 ONEWEB-0061
1 45428U 20020E   24355.93558630 -.00000350  00000-0 -10238-2 0  9991
2 45428  87.8898 129.3018 0001458 101.9623 258.1668 13.11416616231425
Epoch: 2024-12-20T22:27Z
Definitive object data (Epoch: 2024-12-20T22:27:14.656Z)
Latitude-0.00006°
Longitude62.49677°
Altitude1,220.8 km
Speed7.244 km/s
True Right ascension08h 37m 12s
True Declination0° 00' 00"
Sunlit
Object was in full shadow at TLE epoch
Visualization TLE readout
Latitude23.31165°
Longitude-118.52113°
Altitude1,219.892 km
Speed7.247 km/s
Apparent Right ascension21h 35m 36s
Apparent Declination-5° 28' 60"
Sunlit
Object is in daylight
Visualization observer readout
Local Sidereal Time11:05:49
Azimuth36.472° NE
Elevation-50.03°
Doppler factor1
Orbital elements
Apogee altitude1,215.909 km
Perigee altitude1,213.695 km
Semi-major axis7,592.939 km
Eccentricity0.0001458
Inclination87.8898°
RAAN129.3018°
Arg. of periapsis101.9623°
True anomaly258.15045°
Mean anomaly258.1668°
Eccentric anomaly258.15862°
Mean motion3.28041 °/min
BSTAR-0.0010238
Orbital period109.74 mins
Loading maneuver chart data...
Loading historical data...
Loading historical data...
Loading historical data...
Loading historical data...
Loading historical data...
Loading historical data...
Loading historical data...

ONEWEB-0061 Visibility forecast

Observer location: undefined°, undefined

Span
Click to sort rows by Start time (UTC) header in descending order
Start Az.
Max El. time (UTC)
Max El. Az.
Max El.
End time (UTC)
End Az.
13 mins2024-12-21 21:02:05.509Z5.716° NNE2024-12-21 21:08:05.509Z74.532° E43.008°2024-12-21 21:15:05.509Z170.308° S
8 mins2024-12-21 22:54:05.509Z318.46° NNW2024-12-21 22:57:05.509Z289.689° WNW19.463°2024-12-21 23:02:05.509Z243.94° WSW
13 mins2024-12-22 09:21:05.509Z170.759° S2024-12-22 09:27:05.509Z70.907° E44.198°2024-12-22 09:34:05.509Z3.782° NNE
8 mins2024-12-22 11:14:05.509Z254.13° W2024-12-22 11:17:05.509Z281.473° WNW17.395°2024-12-22 11:22:05.509Z325.922° NNW
|